Weather Roundup
Issued by NWS Corpus Christi, TX

Home | Current Version | Previous Version | Text Only | Print | Product List | Glossary On
Versions: 1 2 3 4 5 6 7 8 9 10 11 12 13 14 15 16 17 18 19 20 21 22 23 24 25 26 27 28 29 30 31 32 33 34 35 36 37 38 39 40 41 42 43 44 45 46 47 48 49 50
000
ASUS44 KCRP 270110
HRRCRP

SOUTH TEXAS REGIONAL WEATHER ROUNDUP
NATIONAL WEATHER SERVICE CORPUS CHRISTI TX
800 PM CDT SAT MAY 26 2018


TXZ229>244-270200-
...CORPUS CHRISTI AREA OBSERVATIONS...

CITY           SKY/WX    TMP DP  RH WIND       PRES   REMARKS
CORPUS CHRISTI PTCLDY    83  73  72 SE12      29.75S
NAS CORPUS CHR CLEAR     83  76  79 SE14      29.75S HX  91
ROCKPORT       CLEAR     82  73  74 SE10      29.75S
KINGSVILLE ARP FAIR      87  73  63 E12       29.75R HX  95
KINGSVILLE NAS CLEAR     85  71  63 SE12G21   29.74S HX  90
ALICE          CLEAR     87  68  52 SE15      29.74R HX  90
$$

...VICTORIA AREA OBSERVATIONS...

CITY           SKY/WX    TMP DP  RH WIND       PRES   REMARKS
PORT LAVACA    CLEAR     83  71  67 S9        29.76S
VICTORIA       CLEAR     85  70  60 S14       29.75S
BEEVILLE       FAIR      88  67  50 S14G21    29.75S HX  91
PLEASANTON     CLEAR     96  59  29 S6        29.73S HX  95
SAN ANTONIO    PTCLDY    93  64  38 SE10      29.75S HX  94
$$

...LAREDO AREA OBSERVATIONS...

CITY           SKY/WX    TMP DP  RH WIND       PRES   REMARKS
LAREDO         CLEAR    100  60  26 SE13      29.70S HX 100
COTULLA        PTCLDY    98  58  26 SE12      29.70S HX  97
DEL RIO        CLEAR    102  52  18 SE7       29.68R HX  99
MCALLEN        CLEAR     94  69  44 SE12      29.73S HX  99
HEBBRONVILLE   CLEAR     93  64  37 SE10G17   29.75R HX  95
$$

...OTHER TEXAS OBSERVATIONS...

CITY           SKY/WX    TMP DP  RH WIND       PRES   REMARKS
BROWNSVILLE    FAIR      86  73  65 SE10      29.77R HX  93
HOUSTON        FAIR      85  72  65 SE14      29.78R HX  91
COL. STATION   CLEAR     88  71  57 SE9       29.76R HX  94
AUSTIN         PTCLDY    93  66  40 SE7       29.73S HX  96
WACO           CLEAR     91  68  46 S6        29.72S HX  95
FORT WORTH     PTCLDY    90  65  43 SE10      29.73R HX  92
WICHITA FALLS  CLEAR     88  68  51 E7        29.75R HX  91
LUBBOCK        MOCLDY    94  44  17 SE13      29.80S HX  90
EL PASO        CLOUDY    95  24   8 SW6       29.77F
$$

...MARINE OBSERVATIONS...

STATION/POSITION TIME  SKY/WX   TEMP    WIND        PRES    VSBY  WAVE   SWELL
                                AIR SEA DIR/SP/G                  HT/PER HT/PER
                 (UTC)          (F)     (DEG/KT/KT) (MB)    (MI)  (FT/S) (FT/S)
PORT ARANSAS     0100            81 87  130/ 13/ 15 1007.7R
BUOY 90 E PORT A 0050            81 84  140/  4/  4 1008.6R         2/ 7   2/ 7
BUOY 200 E PT IS 0050            80 83   70/  4/  4 1009.2R         2/ 8   2/ 8
BUOY 15 E GALVES NOT AVBL
$$




USA.gov is the U.S. government's official web portal to all federal, state and local government web resources and services.